{"data":{"norad_id":59354,"intl_designator":"2024-060G","name":"STARLINK-31422","alt_names":[],"object_type":"PAYLOAD","status":"ACTIVE","operator":null,"country":"US","launch_date":"2024-03-31","launch_site_code":"AFETR","launch_vehicle":null,"mission":null,"orbit_class":"UNKNOWN","rcs_meters":null,"size_class":null,"mass_kg":null,"dimensions":null,"purposes":["comms"],"wikipedia_slug":null,"has_3d_model":false,"image_url":null,"decayed_at":null,"tle_current":{"epoch":"2026-05-25T03:52:32.481984Z","epoch_age_seconds":64663,"freshness":"FRESH","line1":"1 59354U 24060G   26145.16148706  .00008675  00000+0  32436-3 0  9995","line2":"2 59354  43.0012 188.3778 0001461 275.8904  84.1781 15.27584636121759","mean_motion":15.27584636,"eccentricity":0.0001461,"inclination_deg":43.0012,"raan_deg":188.3778,"arg_perigee_deg":275.8904,"mean_anomaly_deg":84.1781,"bstar":0.00032436,"rev_number":12175,"period_min":94.266462627607,"perigee_km":482.03279696247,"apogee_km":484.03763148347,"semimajor_km":6861.172214223,"source":"CELESTRAK","updated_at":"2026-05-25T13:38:18.909411Z"}}}